Location: Unspecified
(50.1700°N, 6.8600°E)
Time: 05:41:14
(UTC+00:00)

COSMO-SKYMED 1 - Pass Details

Date: 24 January 2019
Orbit: 621 x 624 km, 97.9° (Epoch: 20 February)

Event Time Altitude Azimuth Distance (km) Brightness Sun altitude
Rises 05:42:57 0° 202° (SSW) 2,894 5.9 -14.9°
Reaches altitude 10° 05:45:36 10° 219° (SW) 1,993 4.9 -14.5°
Enters shadow 05:48:35 21° 263° (W) 1,428 3.9 -14.0°
